This demonstration page uses our WeatherBlox Daily Observations layout. Learn more.

Left ArrowRight Arrow

34.16533, -84.80231

Hourly Observations for October 5, 2015

Temp ( °F °C ) Dew Point ( °F °C ) Humidity (%) Winds ( mph kmh ) Pressure ( in mb ) Visibility ( mi km ) Precip ( " mm )
12:53 am 00:53 Cloudy 65 18.3 65 18.3 100 100 Calm 29.87 1012 10 16 0.00 0.00
1:53 am 01:53 Cloudy 65 18.3 65 18.3 100 100 Calm 29.87 1012 10 16 0.00 0.00
2:53 am 02:53 Cloudy 66 18.9 65 18.3 96 96 Calm 29.88 1012 10 16 0.00 0.00
3:53 am 03:53 Cloudy 66 18.9 65 18.3 96 96 N 3 6 29.89 1012 10 16 0.00 0.00
4:53 am 04:53 Cloudy 66 18.9 65 18.3 96 96 Calm 29.89 1012 10 16 0.00 0.00
5:53 am 05:53 Cloudy 65 18.3 64 17.8 97 97 Calm 29.89 1012 10 16 0.00 0.00
6:53 am 06:53 Partly Cloudy with Mist and Fog 63 17.2 63 17.2 100 100 Calm 29.89 1012 5 8 0.00 0.00
7:02 am 07:02 Mostly Cloudy with Mist and Fog 63 17.2 62 16.7 97 97 Calm 29.91 1013 4 6 0.00 0.00
7:53 am 07:53 Cloudy with Mist and Fog 64 17.8 64 17.8 100 100 NNW 5 7 29.91 1013 4 6 0.00 0.00
8:25 am 08:25 Cloudy 64 17.8 63 17.2 96 96 N 7 11 29.97 1015 10 16 0.00 0.00
8:53 am 08:53 Cloudy 64 17.8 63 17.2 96 96 N 5 7 29.93 1014 10 16 0.00 0.00
9:43 am 09:43 Cloudy 65 18.3 63 17.2 93 93 N 7 11 29.97 1015 10 16 0.00 0.00
9:53 am 09:53 Cloudy 65 18.3 63 17.2 93 93 N 6 9 29.96 1014 10 16 0.00 0.00
10:08 am 10:08 Cloudy 66 18.9 63 17.2 90 90 N 5 7 30.00 1016 10 16 0.00 0.00
10:34 am 10:34 Cloudy 68 20 64 17.8 87 87 NNE 3 6 30.00 1016 10 16 0.00 0.00
10:53 am 10:53 Mostly Cloudy 70 21.1 65 18.3 84 84 VRB 3 6 29.96 1014 10 16 0.00 0.00
11:53 am 11:53 Cloudy 72 22.2 64 17.8 76 76 Calm 29.95 1014 10 16 0.00 0.00
12:53 pm 12:53 Cloudy 74 23.3 65 18.3 74 74 NE 3 6 29.94 1014 10 16 0.00 0.00
1:53 pm 13:53 Cloudy 74 23.3 65 18.3 74 74 Calm 29.94 1014 10 16 0.00 0.00
2:23 pm 14:23 Cloudy 75 23.9 66 18.9 74 74 VRB 3 6 29.97 1015 10 16 0.00 0.00
2:53 pm 14:53 Cloudy 77 25 65 18.3 66 66 N 5 7 29.92 1013 10 16 0.00 0.00
3:53 pm 15:53 Mostly Cloudy 78 25.6 66 18.9 67 67 SE 7 11 29.91 1013 10 16 0.00 0.00
4:53 pm 16:53 Cloudy 77 25 66 18.9 69 69 E 5 7 29.91 1013 10 16 0.00 0.00
5:53 pm 17:53 Cloudy 74 23.3 67 19.4 79 79 SSE 5 7 29.92 1013 10 16 0.00 0.00
6:53 pm 18:53 Cloudy 72 22.2 66 18.9 82 82 SSE 3 6 29.94 1014 10 16 0.00 0.00
7:53 pm 19:53 Cloudy 69 20.6 67 19.4 93 93 Calm 29.95 1014 10 16 0.00 0.00
8:53 pm 20:53 Cloudy 68 20 66 18.9 93 93 Calm 29.96 1015 10 16 0.00 0.00
9:53 pm 21:53 Mostly Cloudy 67 19.4 66 18.9 97 97 Calm 29.97 1015 10 16 0.00 0.00
10:53 pm 22:53 Mostly Cloudy 65 18.3 65 18.3 100 100 Calm 29.98 1015 10 16 0.00 0.00
11:53 pm 23:53 Cloudy 66 18.9 66 18.9 100 100 Calm 29.99 1016 10 16 0.00 0.00

Powered by AerisWeather